Location: Jalan Sepang
(2.8072°N, 101.8021°E)
Time: 05:15:53
(UTC+00:00)

USA 281 - Pass Details

Date: 15 May 2026
Orbit: 1079 x 1080 km, 106.0° (Epoch: 5 January)

Event Time Altitude Azimuth Distance (km) Brightness Sun altitude
Rises 21:59:57 0° 186° (S) 3,874 5.9 -15.4°
Reaches altitude 10° 22:02:59 10° 199° (SSW) 2,917 5.1 -14.7°
Maximum altitude 22:08:03 24° 250° (WSW) 2,058 4.1 -13.5°
Drops below altitude 10° 22:13:07 10° 301° (WNW) 2,912 5.1 -12.3°
Sets 22:16:10 0° 315° (NW) 3,866 5.9 -11.6°
